Vorticity
7 5 4 3 3 2 2 2 2 2 3 2 2 4 6 5 4 4 6 6 2 1 2 2 2 1 2 4 5 6 5 6 10 12 10 10 13 12 10 8 7 4 2 6 9 12 10 9 12 12 9 -2 -3 7 4 -1 -7 -4 8 4 6 11 1 2 7 9 14 6 3 5 3 5 3 2 3 4 4 4 5 4 5 5 5 6 4 2 4 3
10 7 5 4 4 3 2 2 2 1 3 3 1 2 5 5 3 3 5 7 4 2 2 2 2 -0 1 3 4 6 5 5 9 12 13 13 13 12 9 9 10 5 3 6 7 11 10 10 11 4 -0 1 8 12 -0 1 11 3 0 4 4 6 3 1 1 5 11 7 4 7 5 4 3 1 2 3 3 3 4 5 4 4 5 5 6 2 2 5
13 10 7 6 4 4 3 2 2 1 2 2 1 1 3 5 4 3 4 5 6 3 1 2 2 1 0 1 4 4 5 6 7 10 16 15 12 11 10 11 12 7 6 6 7 9 9 8 0 -2 7 8 8 5 -4 4 13 9 12 8 1 6 7 4 3 1 7 9 7 8 7 6 5 1 3 4 2 4 5 5 4 4 5 4 6 6 4 6
14 13 10 7 6 4 4 3 2 2 2 2 2 1 1 4 5 3 4 5 6 4 2 2 2 2 -0 1 3 2 5 8 5 9 15 15 12 11 11 12 12 10 8 6 6 5 8 9 0 7 6 -9 1 -1 -7 7 -8 -13 15 9 -2 9 6 8 12 7 11 13 7 9 10 7 5 3 4 3 2 5 7 6 5 4 6 4 6 7 5 5
11 15 14 10 7 6 5 4 3 2 2 2 2 3 0 1 4 4 4 4 5 5 4 2 2 3 0 1 2 1 4 6 3 8 13 14 13 11 12 13 11 11 10 5 6 4 5 9 8 12 -3 -15 6 2 -4 16 -2 -8 23 6 -7 11 8 10 15 13 16 10 7 9 8 7 5 4 1 2 4 4 7 9 7 6 7 5 5 5 4 4
6 11 15 14 10 7 6 5 4 3 2 2 2 3 1 0 2 4 4 3 4 6 6 3 1 2 1 1 2 1 1 3 3 7 12 13 13 12 12 14 13 12 9 6 5 3 3 10 12 5 3 10 8 0 5 9 -6 4 25 7 -0 12 7 12 14 12 13 5 5 7 7 9 7 5 2 5 9 6 9 10 7 8 8 5 5 5 5 5
4 6 12 16 14 10 7 6 5 5 3 2 2 3 2 0 1 3 4 4 3 5 7 5 2 2 2 1 2 1 -1 2 2 5 11 13 14 13 13 14 14 12 8 7 4 4 3 4 10 -4 -1 19 4 0 13 -2 -3 16 16 3 4 10 8 14 14 9 8 5 6 7 8 9 9 13 11 11 13 10 10 11 10 9 8 7 6 5 4 5
5 4 6 12 17 14 9 7 6 5 5 3 2 2 3 1 0 2 4 4 3 4 7 6 3 2 3 1 2 2 0 2 0 2 8 12 13 13 14 14 14 13 8 7 4 5 4 -1 10 2 -5 11 5 9 14 -5 3 15 7 4 5 7 11 14 13 7 6 7 7 10 12 10 11 17 17 16 16 12 8 7 9 8 8 9 8 7 6 5
5 5 5 7 13 17 14 10 7 6 6 5 3 2 3 3 1 1 3 4 3 3 5 7 6 3 3 2 2 3 2 2 -1 1 7 11 14 12 12 15 15 11 7 8 6 4 5 -0 -2 -8 -4 11 8 8 8 -3 7 14 6 5 3 4 10 12 10 7 6 7 8 9 9 7 9 12 13 14 14 12 8 6 6 6 7 8 7 9 8 6
7 6 6 5 7 14 17 14 9 7 7 5 4 3 3 4 3 2 3 4 4 3 3 6 7 4 2 2 1 3 4 4 -0 -0 5 9 14 12 11 15 14 11 9 7 6 5 4 0 -0 6 17 19 7 2 4 0 3 9 7 2 3 4 6 10 8 6 6 5 5 6 5 6 9 10 9 10 9 9 8 7 7 5 6 7 7 8 9 8
8 6 7 7 6 8 14 17 13 9 8 7 4 4 4 4 4 3 2 4 4 3 3 5 7 6 4 2 1 2 4 5 3 -1 3 9 12 13 12 14 13 10 10 6 4 7 3 5 10 14 18 15 6 -4 1 12 4 2 9 3 2 5 5 10 10 6 5 3 3 4 7 10 9 7 9 10 7 8 8 7 8 7 7 8 7 7 9 8
11 8 6 7 7 6 9 15 16 12 9 9 6 4 5 5 4 3 3 4 4 4 4 4 6 8 5 3 1 2 3 3 4 -0 0 8 12 13 12 13 13 9 10 9 6 5 3 8 3 -4 6 15 9 -4 -0 20 15 3 7 3 2 8 6 7 8 6 5 3 5 7 8 10 8 4 6 7 6 7 6 6 8 7 7 8 8 7 9 8
15 10 7 7 8 8 7 10 15 15 11 10 8 5 5 6 5 4 4 4 4 4 4 3 6 8 7 5 1 1 2 2 4 2 -0 6 11 12 12 11 11 10 12 10 6 5 2 3 1 1 11 3 -6 8 16 11 4 1 6 4 -0 4 6 6 6 5 5 3 8 10 5 11 14 6 1 1 4 7 5 6 7 7 8 8 8 8 8 9
20 14 9 8 7 8 8 8 11 15 14 11 10 8 5 6 6 5 4 5 5 4 4 4 4 6 9 8 3 1 3 1 2 2 -0 4 11 12 12 12 9 10 12 11 9 6 1 1 6 9 10 -2 -11 7 17 6 4 3 3 4 4 2 -1 4 8 5 3 4 7 4 -5 7 18 10 2 -2 2 5 4 5 5 7 10 7 7 9 8 8
23 19 13 9 8 8 8 9 9 12 15 12 11 11 7 6 6 6 5 5 5 5 4 4 4 7 10 7 2 2 2 1 1 3 1 2 10 12 12 11 8 10 11 13 13 6 4 3 5 7 6 13 8 -3 5 12 8 1 1 5 10 5 -9 -3 10 7 3 1 5 7 -2 2 12 13 9 2 3 4 3 5 3 6 9 7 7 8 8 8
23 24 18 11 9 8 7 9 9 10 13 13 12 12 9 7 6 7 6 5 5 5 4 5 5 5 8 8 4 3 2 1 1 4 3 1 8 12 11 11 8 9 11 13 10 5 9 -2 -3 13 8 8 10 -3 2 8 1 5 10 2 1 5 -3 -1 8 4 5 4 5 12 12 7 6 13 14 5 5 3 2 4 3 6 8 6 6 7 8 8
20 24 24 15 9 9 8 8 10 10 11 13 12 11 12 9 7 7 7 7 5 5 5 4 5 6 9 10 7 5 3 2 1 4 5 0 6 11 10 12 9 8 9 11 8 6 9 -7 -4 26 15 1 8 1 1 5 2 6 8 0 -0 4 -0 0 5 2 4 6 4 5 8 8 5 10 12 7 6 3 3 6 3 6 8 4 3 5 8 6
18 22 25 21 11 8 9 8 9 10 11 13 12 11 11 10 8 8 7 7 6 5 5 3 6 6 4 5 5 5 5 2 -1 3 6 1 5 10 8 10 10 8 7 9 9 6 9 -2 -2 19 11 3 9 1 -1 3 3 4 8 9 3 3 6 4 5 5 4 7 7 2 -3 0 5 8 8 7 8 5 2 4 4 5 7 5 1 3 7 6
17 19 24 26 16 7 9 10 9 10 11 12 13 11 11 11 9 9 8 8 7 5 5 5 4 2 3 6 5 5 5 2 0 3 6 2 5 9 8 8 9 8 7 8 8 4 8 5 1 12 9 7 8 1 3 2 -1 6 10 8 5 11 14 4 2 5 4 4 4 4 2 4 8 8 7 7 8 7 3 3 5 3 5 8 3 2 6 5
16 18 22 26 22 10 7 11 10 9 11 12 14 13 12 11 9 10 9 8 8 6 5 6 5 4 8 9 8 9 7 4 2 3 4 3 4 7 9 8 7 9 7 6 7 4 6 5 5 13 9 8 9 3 5 0 0 13 11 5 8 10 5 2 8 6 2 5 5 5 6 7 7 4 6 7 5 6 5 3 5 3 3 8 5 4 6 3
11 17 21 26 27 15 6 10 12 9 10 12 13 14 13 11 9 9 10 9 8 6 6 6 5 6 5 6 10 9 5 3 2 2 4 3 4 6 7 7 8 10 7 6 8 4 7 7 7 14 11 10 16 10 1 -5 -2 10 12 8 4 4 8 11 3 -7 -2 9 7 4 4 2 2 2 5 6 5 6 5 3 4 5 2 4 5 5 6 1
7 13 19 25 29 20 6 8 13 11 10 11 12 14 13 13 11 10 10 11 9 7 6 6 6 7 6 8 11 7 3 3 2 3 4 2 3 6 6 8 10 9 5 5 7 4 8 11 7 14 10 2 12 10 -2 4 6 0 7 11 3 2 12 15 2 -9 3 13 6 5 5 2 4 5 4 4 6 5 1 3 4 5 4 2 4 4 2 1
5 8 15 23 30 25 9 5 14 14 9 10 12 12 12 14 13 10 10 12 11 8 7 6 7 7 7 7 7 8 7 3 2 2 3 3 4 6 6 9 10 6 5 7 5 3 7 12 12 12 3 -3 12 9 -1 15 15 -2 5 11 7 5 2 6 1 -14 -1 15 10 8 9 6 5 5 5 5 8 5 1 4 5 6 8 4 3 4 2 1
6 6 10 18 28 29 13 3 12 16 10 9 11 11 11 12 15 11 9 12 12 10 8 7 7 8 9 8 6 9 6 3 4 2 2 4 4 6 7 9 9 3 8 11 6 5 6 11 15 9 0 7 20 13 8 16 7 2 10 5 5 8 -3 1 2 -10 2 14 5 3 8 7 3 4 8 7 6 8 5 4 4 5 10 9 5 4 3 2
7 6 8 14 23 32 20 2 8 17 13 9 10 11 10 10 14 13 9 12 13 11 11 9 8 9 9 8 8 8 5 4 4 3 2 3 4 7 5 6 9 7 8 9 7 9 7 6 11 7 4 14 18 10 8 6 -2 7 13 1 1 3 -2 8 14 5 6 12 10 6 6 6 3 3 7 6 3 5 7 6 4 3 5 9 9 7 5 3
8 6 7 11 18 30 25 5 5 16 15 11 11 11 10 10 12 13 10 11 15 12 10 10 8 10 9 9 10 7 6 5 4 4 3 2 4 5 5 7 9 10 8 6 9 9 5 6 10 11 8 10 12 5 5 7 -1 -1 5 5 4 2 3 8 9 5 0 7 15 7 4 5 4 10 9 5 5 3 5 5 1 3 3 4 8 7 6 5
9 7 8 10 15 26 27 11 4 14 16 12 13 11 10 11 9 12 11 9 16 15 10 10 9 10 9 8 10 8 6 6 5 5 2 2 4 1 4 7 5 9 7 5 9 2 2 13 12 10 8 5 7 4 6 14 3 -5 7 19 16 4 1 -1 2 14 14 11 8 2 8 8 4 18 16 5 9 7 4 5 3 2 0 3 9 6 5 6
10 9 8 9 14 22 26 15 4 13 17 12 13 11 11 12 8 13 11 5 16 17 8 10 10 11 12 7 9 10 7 8 7 5 4 3 3 1 4 6 6 9 5 8 13 -0 4 21 15 7 6 4 10 14 11 3 -2 4 5 1 7 4 1 4 5 11 10 3 2 1 10 14 2 4 8 5 9 6 -2 1 9 10 2 1 9 7 4 7
11 10 9 9 14 20 24 16 5 11 19 14 13 13 11 12 9 12 9 2 13 18 8 9 10 11 15 10 8 9 6 7 8 6 6 5 3 4 5 9 11 5 6 19 17 0 3 13 10 11 14 10 7 11 15 -3 -6 26 16 -19 -9 6 9 15 8 4 6 7 13 7 4 14 7 5 15 8 1 3 3 5 9 10 6 1 4 8 5 6
12 11 11 9 14 19 20 15 8 11 19 15 13 14 13 13 11 13 10 1 8 17 11 9 10 9 14 12 8 9 6 5 6 4 4 6 7 4 0 6 11 5 12 22 3 -6 10 9 3 8 12 13 2 -4 12 -1 -14 28 38 1 2 15 13 13 5 5 9 6 15 16 9 12 12 14 13 -2 2 16 11 6 6 5 7 5 3 8 7 3
12 12 11 10 14 18 16 14 10 12 17 15 13 15 14 13 13 10 9 7 9 17 16 9 9 8 11 13 10 10 10 8 6 4 2 5 5 2 1 5 7 1 6 7 -13 -9 18 14 -2 -2 -4 5 10 -0 7 2 -13 10 25 11 13 13 6 8 5 7 8 -0 5 18 17 9 6 11 3 -5 16 30 13 2 1 3 10 9 6 9 7 6
13 12 12 12 13 16 14 11 11 13 16 15 13 16 14 14 16 8 4 10 13 14 15 13 11 9 9 13 12 10 11 10 8 6 5 6 4 3 8 8 4 1 -1 1 -5 -1 22 21 3 -0 -3 3 17 10 4 5 2 10 11 5 10 3 1 13 10 4 7 7 9 16 17 6 -1 10 11 2 1 9 25 27 8 3 7 4 7 10 7 8
13 12 12 14 13 13 12 10 11 12 14 14 12 15 15 12 16 9 -1 6 17 17 19 22 14 8 11 12 10 10 11 11 9 8 9 8 6 8 8 4 6 11 8 7 5 2 16 22 5 1 3 3 12 10 5 8 7 12 10 2 5 2 -1 11 12 3 3 9 13 13 14 9 0 4 11 12 0 -12 -2 5 -4 -0 3 -1 6 10 9 10
13 12 12 14 13 10 9 9 11 12 13 13 11 14 16 12 13 13 -1 -6 12 17 11 21 20 8 12 13 10 10 7 10 9 4 10 9 4 7 8 5 7 10 12 9 5 4 13 10 -2 7 12 2 7 8 5 12 9 10 12 -0 5 10 -2 0 11 9 5 12 16 2 -6 0 7 8 3 8 20 9 -9 -10 1 10 5 3 9 7 7 10
13 11 11 13 13 10 9 8 10 12 13 10 11 12 15 15 10 15 7 -13 8 33 13 8 18 10 8 9 12 15 5 11 14 2 7 11 3 7 9 8 5 7 15 9 -2 5 13 -2 -10 18 23 1 11 13 -2 9 10 6 14 6 1 8 2 2 9 8 8 12 10 3 7 16 19 16 7 5 15 18 12 11 15 13 7 7 8 7 9 9
13 10 10 11 11 11 9 9 9 11 14 8 9 11 13 20 11 8 17 -8 -4 39 34 15 15 9 11 8 7 16 6 7 19 9 7 9 6 8 8 7 5 0 6 7 1 5 13 2 -8 13 19 1 15 13 -6 13 18 2 14 12 2 7 5 5 8 9 15 7 -10 -1 20 21 10 11 24 26 14 7 11 16 15 12 10 8 5 7 12 11
13 9 9 9 11 12 10 11 8 9 15 8 7 12 11 25 16 -5 17 12 -11 13 32 30 24 8 10 12 7 18 13 2 11 12 9 11 8 6 8 12 7 -3 -2 6 9 3 6 14 4 2 8 3 12 8 -6 11 12 1 19 18 7 10 3 7 16 13 19 15 -2 2 13 10 8 10 6 -1 -3 4 11 14 16 16 13 11 10 8 9 10
14 9 9 9 10 13 12 13 10 8 15 8 7 13 8 23 20 -11 8 23 -9 -10 12 25 33 19 9 7 6 17 16 5 9 8 7 14 11 5 9 10 6 7 9 8 7 -2 1 15 5 -4 3 3 8 8 0 3 -9 -11 16 19 9 5 -4 5 18 7 5 12 9 9 11 11 15 14 5 10 27 33 25 14 10 13 13 11 9 8 10 10
15 9 8 10 9 12 13 13 12 9 13 11 7 12 11 15 9 -11 12 27 -8 -15 3 2 14 30 18 -0 3 19 15 5 13 10 2 11 13 8 12 9 5 15 10 -7 -4 8 18 18 5 11 22 14 11 8 3 8 -4 -17 -6 4 10 11 2 5 13 8 5 5 7 10 9 11 16 18 19 20 10 -2 6 15 11 11 14 9 4 4 8 10
15 10 8 11 10 13 13 12 14 10 11 16 10 10 16 14 -2 -11 14 28 3 3 15 -10 -12 25 30 2 -2 23 23 4 11 18 7 7 13 13 15 7 2 17 11 -21 -29 2 29 16 -1 20 30 17 14 10 4 12 8 -1 -3 -5 2 7 4 5 8 10 7 -0 5 10 5 4 8 8 -2 -17 -28 -23 3 19 12 9 12 10 8 4 4 8
14 12 8 10 9 11 13 12 15 13 12 18 14 8 13 14 8 7 16 18 5 10 17 -8 -21 9 34 19 -3 13 30 11 3 16 12 5 6 10 17 8 -7 10 24 -4 -38 -21 18 12 -7 8 11 3 14 15 13 14 3 6 16 5 -1 1 -2 2 5 4 2 0 6 9 7 6 6 5 -4 -12 -4 8 13 11 7 8 10 9 9 3 2 7
11 13 8 10 10 9 13 13 14 15 14 17 17 10 7 7 5 7 17 20 10 11 17 3 -16 -12 15 27 4 1 26 24 8 9 8 4 1 1 16 15 -6 -4 16 15 -11 -23 -3 3 -3 3 -1 5 27 20 14 19 1 -0 19 13 5 5 2 4 7 7 6 7 8 4 5 9 10 13 14 13 14 11 5 4 5 6 7 8 8 2 1 6
8 12 9 10 12 9 10 12 12 15 16 16 18 11 4 10 9 1 8 19 12 11 17 9 -12 -24 -11 15 12 -0 12 21 18 15 6 2 1 0 19 26 7 -3 -2 5 8 -3 -8 -3 2 6 -6 -2 25 21 11 19 2 -8 10 12 6 6 2 1 5 7 8 7 9 13 11 8 5 5 9 16 16 8 5 7 2 2 5 5 7 7 4 4
6 10 10 7 9 9 9 12 13 14 16 17 18 12 3 9 19 14 8 11 10 9 17 16 0 -15 -13 6 11 3 7 14 18 18 5 5 6 -4 11 28 13 3 4 -0 2 6 3 -4 -6 5 4 -2 10 14 13 22 8 -9 -1 6 7 6 1 1 2 -1 1 -1 -4 1 4 2 3 4 4 8 8 -2 -1 9 8 4 5 3 6 10 3 -1
8 8 10 7 8 10 10 11 9 9 15 18 15 13 9 8 18 18 6 6 10 4 5 14 12 2 0 4 -3 -10 2 15 21 18 -0 2 17 -4 -10 16 13 -2 8 10 2 8 19 12 -7 -5 4 -0 -3 -4 1 17 17 4 -2 -4 2 9 5 6 5 -3 2 7 -2 -5 1 1 2 8 9 13 20 12 -1 4 10 6 3 2 4 8 5 -0
11 8 8 9 8 9 9 8 8 9 13 17 16 13 12 11 17 18 6 4 14 11 4 8 12 9 6 10 4 -14 -14 -2 8 22 11 -7 9 12 -3 7 9 -8 -1 11 2 -3 10 18 9 5 8 0 -5 -3 -3 6 17 17 8 -3 -2 7 6 3 4 -1 2 12 12 11 16 12 1 0 5 8 22 28 8 -2 8 10 6 5 5 7 9 8
10 10 6 8 9 8 10 8 8 12 11 13 18 17 14 12 13 17 11 3 7 13 11 9 11 12 4 8 18 5 -2 -4 -20 -0 34 13 -7 18 30 21 12 2 2 8 1 -13 -11 2 9 18 22 5 -6 2 4 4 10 12 13 13 10 9 7 4 6 4 -3 -1 4 5 12 19 10 1 0 -6 -7 1 -4 -7 4 8 6 8 6 2 2 7
5 11 7 7 10 8 9 7 6 9 8 9 16 15 13 12 10 14 15 8 5 7 9 8 8 12 7 5 14 7 9 21 -14 -35 11 24 -8 5 33 26 14 12 9 9 8 -0 -2 2 -4 -2 11 7 -3 1 4 7 13 10 9 16 15 10 8 5 6 8 5 1 -1 -3 -1 8 11 9 8 2 -1 0 -1 0 5 5 5 9 8 4 1 4
0 9 9 6 9 7 4 5 9 14 12 12 18 17 14 13 10 13 13 8 9 8 9 12 7 8 9 4 14 14 4 20 18 -16 -15 1 -8 -1 19 16 6 6 4 6 10 8 4 3 -2 -3 9 17 17 12 2 -0 8 12 10 9 8 10 12 10 8 8 9 3 -2 3 8 2 -2 1 4 6 9 6 1 3 4 2 3 7 8 10 8 6
1 5 9 7 9 10 6 4 9 15 14 14 17 17 19 17 11 14 15 7 7 8 7 11 8 8 11 1 6 21 7 0 16 13 -0 -6 -12 -9 6 15 14 10 7 6 7 7 3 -1 5 12 10 9 17 20 12 4 2 5 7 5 5 7 7 8 8 5 7 6 0 3 8 5 2 -0 -3 1 4 -1 -0 6 7 4 4 7 10 14 14 13
7 5 9 8 7 9 9 7 5 8 10 12 15 13 15 19 13 14 17 6 4 9 7 7 8 8 14 8 -0 8 13 10 13 15 13 9 -3 -12 -6 7 10 9 12 12 3 4 10 6 5 5 -4 -7 2 4 3 5 1 -2 3 3 3 7 5 4 7 7 6 6 7 4 -4 -5 9 10 3 5 6 0 2 6 5 6 7 9 13 13 12 13
10 8 10 8 7 8 10 9 6 7 7 8 14 12 10 16 17 17 17 6 2 9 9 9 9 6 9 15 9 0 1 11 17 14 11 13 7 -1 1 9 9 7 14 19 12 7 10 7 6 6 2 2 4 -0 2 10 8 9 15 9 1 3 6 9 10 7 6 3 2 4 -1 -4 5 6 -0 2 -0 -7 -3 4 6 10 14 17 18 14 11 12
Height
5901 5902 5903 5904 5905 5906 5907 5908 5909 5910 5911 5913 5914 5914 5915 5916 5916 5917 5918 5918 5919 5920 5920 5920 5920 5920 5920 5919 5919 5918 5918 5918 5918 5918 5918 5918 5918 5918 5919 5920 5921 5922 5923 5924 5925 5926 5927 5927 5928 5928 5929 5930 5930 5931 5931 5931 5933 5932 5935 5942 5945 5944 5942 5940 5938 5936 5935 5935 5935 5934 5934 5934 5934 5934 5933 5933 5932 5932 5931 5930 5930 5930 5930 5930 5930 5930 5929 5930
5899 5900 5901 5902 5903 5904 5905 5906 5907 5909 5910 5911 5912 5913 5914 5915 5915 5916 5917 5918 5918 5919 5919 5920 5920 5920 5920 5920 5919 5918 5918 5918 5918 5918 5918 5918 5918 5918 5919 5919 5921 5922 5923 5925 5925 5926 5927 5928 5929 5929 5929 5930 5931 5932 5932 5933 5933 5933 5939 5945 5944 5943 5940 5938 5938 5937 5936 5935 5935 5935 5934 5934 5934 5934 5934 5934 5933 5932 5932 5931 5931 5931 5931 5931 5931 5931 5931 5931
5897 5898 5899 5900 5901 5902 5903 5904 5906 5907 5908 5909 5910 5912 5912 5913 5914 5915 5916 5917 5917 5918 5919 5919 5920 5920 5920 5920 5920 5919 5918 5918 5918 5918 5918 5918 5918 5919 5919 5919 5921 5922 5923 5924 5926 5927 5927 5928 5928 5930 5930 5930 5932 5933 5933 5934 5936 5938 5943 5946 5941 5939 5938 5937 5937 5937 5937 5936 5936 5936 5935 5935 5934 5934 5934 5934 5934 5933 5932 5932 5931 5931 5931 5931 5931 5932 5932 5932
5895 5896 5897 5898 5899 5900 5901 5902 5904 5905 5906 5907 5909 5910 5911 5912 5913 5914 5915 5916 5916 5917 5918 5919 5919 5920 5920 5920 5920 5919 5919 5918 5918 5918 5918 5918 5918 5919 5919 5919 5920 5922 5923 5924 5926 5926 5927 5928 5928 5930 5930 5932 5934 5934 5935 5935 5937 5942 5943 5943 5939 5938 5938 5937 5937 5937 5937 5936 5936 5936 5935 5935 5934 5934 5934 5934 5934 5933 5933 5933 5932 5931 5932 5932 5932 5932 5932 5932
5893 5893 5894 5895 5896 5897 5899 5900 5901 5903 5904 5905 5907 5908 5909 5910 5911 5912 5913 5914 5915 5916 5917 5918 5919 5919 5920 5920 5920 5919 5919 5918 5918 5918 5918 5918 5918 5919 5919 5920 5920 5922 5923 5924 5926 5926 5928 5928 5929 5930 5930 5935 5937 5935 5938 5936 5936 5941 5939 5938 5939 5938 5938 5937 5937 5937 5937 5937 5937 5936 5936 5935 5935 5934 5934 5934 5934 5933 5934 5933 5932 5932 5932 5932 5933 5933 5933 5933
5891 5891 5892 5893 5894 5895 5896 5897 5899 5900 5902 5903 5905 5906 5907 5909 5910 5911 5912 5913 5914 5915 5916 5917 5918 5919 5919 5920 5920 5919 5919 5918 5918 5918 5918 5918 5918 5919 5919 5920 5920 5922 5923 5924 5925 5926 5928 5929 5930 5930 5931 5938 5940 5938 5940 5937 5937 5941 5938 5937 5938 5937 5937 5937 5937 5937 5937 5937 5937 5937 5936 5935 5935 5934 5934 5933 5933 5933 5933 5933 5932 5932 5933 5932 5933 5933 5933 5933
5888 5889 5890 5891 5892 5893 5894 5895 5896 5898 5899 5901 5902 5904 5906 5907 5908 5909 5911 5912 5913 5914 5915 5916 5917 5918 5918 5919 5919 5919 5919 5918 5918 5918 5918 5918 5918 5919 5919 5920 5920 5921 5923 5924 5925 5926 5928 5929 5931 5931 5933 5939 5941 5942 5941 5937 5939 5941 5938 5938 5938 5937 5937 5937 5937 5937 5937 5938 5937 5937 5936 5935 5935 5934 5934 5933 5933 5933 5934 5933 5933 5932 5933 5933 5933 5933 5933 5933
5885 5886 5887 5888 5889 5890 5891 5893 5894 5895 5896 5898 5900 5902 5903 5905 5906 5908 5909 5910 5912 5913 5914 5914 5916 5917 5918 5918 5919 5919 5919 5918 5918 5918 5918 5918 5919 5919 5919 5920 5920 5921 5922 5924 5925 5926 5928 5929 5931 5931 5936 5940 5940 5941 5940 5939 5941 5939 5937 5939 5938 5938 5937 5937 5937 5937 5938 5938 5938 5937 5937 5936 5936 5936 5935 5934 5934 5934 5934 5934 5933 5933 5933 5933 5933 5934 5934 5934
5882 5883 5884 5886 5887 5888 5889 5890 5891 5893 5894 5895 5897 5899 5901 5903 5904 5906 5907 5909 5910 5911 5912 5913 5914 5916 5917 5917 5918 5918 5918 5918 5918 5918 5918 5918 5919 5919 5919 5920 5921 5921 5922 5924 5925 5926 5928 5929 5931 5932 5937 5940 5940 5939 5939 5941 5941 5938 5938 5938 5938 5938 5938 5938 5938 5938 5938 5938 5938 5938 5937 5937 5937 5936 5935 5935 5934 5934 5935 5934 5934 5934 5934 5934 5934 5934 5934 5934
5879 5880 5881 5882 5884 5885 5886 5887 5888 5890 5891 5893 5894 5896 5898 5900 5902 5904 5906 5907 5908 5909 5910 5912 5913 5914 5916 5916 5917 5917 5917 5918 5918 5918 5918 5918 5918 5919 5919 5920 5920 5921 5922 5924 5925 5926 5927 5929 5931 5932 5935 5937 5939 5940 5941 5942 5940 5938 5939 5938 5938 5938 5938 5939 5938 5939 5939 5939 5939 5938 5938 5937 5937 5936 5935 5935 5935 5935 5935 5934 5934 5934 5934 5934 5934 5934 5934 5934
5875 5876 5877 5879 5880 5882 5883 5884 5885 5887 5889 5890 5892 5893 5895 5897 5899 5901 5903 5905 5906 5907 5909 5910 5912 5913 5914 5915 5916 5917 5917 5917 5918 5917 5918 5918 5918 5919 5919 5920 5920 5921 5922 5923 5925 5926 5926 5928 5929 5932 5934 5936 5938 5941 5942 5942 5939 5938 5938 5938 5938 5938 5938 5939 5939 5940 5940 5940 5939 5938 5938 5938 5938 5938 5936 5936 5936 5935 5935 5935 5935 5935 5935 5934 5934 5935 5934 5934
5872 5873 5874 5875 5877 5878 5880 5881 5883 5884 5885 5887 5889 5891 5892 5894 5896 5899 5901 5903 5904 5906 5907 5908 5910 5912 5913 5914 5915 5916 5916 5917 5917 5917 5917 5918 5918 5918 5919 5920 5920 5921 5922 5923 5924 5926 5927 5928 5928 5930 5934 5937 5939 5940 5939 5939 5938 5938 5938 5938 5938 5939 5939 5939 5939 5940 5940 5940 5940 5939 5939 5939 5939 5939 5937 5936 5936 5936 5935 5935 5934 5935 5935 5934 5934 5934 5934 5934
5869 5870 5871 5872 5873 5875 5876 5878 5880 5881 5882 5884 5886 5888 5889 5891 5894 5896 5898 5901 5902 5904 5905 5907 5908 5910 5911 5913 5914 5915 5916 5916 5917 5917 5917 5917 5918 5918 5919 5920 5920 5921 5922 5923 5924 5926 5927 5928 5928 5929 5931 5937 5940 5939 5937 5937 5937 5938 5938 5938 5938 5938 5939 5940 5940 5940 5940 5939 5940 5939 5939 5939 5939 5940 5938 5937 5936 5936 5935 5935 5934 5935 5935 5935 5934 5934 5934 5934
5866 5867 5868 5869 5870 5871 5872 5874 5876 5878 5879 5881 5884 5885 5887 5889 5891 5893 5896 5898 5900 5901 5903 5905 5906 5908 5910 5912 5913 5914 5915 5916 5916 5916 5917 5917 5917 5918 5918 5919 5920 5921 5922 5923 5924 5925 5926 5927 5928 5929 5930 5935 5938 5936 5936 5937 5936 5937 5938 5938 5939 5940 5940 5940 5940 5940 5940 5939 5940 5939 5939 5939 5939 5939 5939 5937 5936 5935 5935 5935 5935 5935 5935 5935 5935 5934 5934 5934
5862 5864 5865 5866 5867 5868 5869 5870 5872 5874 5876 5878 5880 5882 5884 5886 5888 5890 5893 5895 5897 5899 5901 5903 5905 5907 5908 5910 5911 5912 5914 5915 5915 5916 5916 5916 5917 5917 5918 5919 5920 5921 5921 5922 5923 5924 5926 5927 5928 5930 5930 5932 5934 5935 5936 5936 5937 5937 5937 5939 5940 5942 5941 5940 5940 5940 5940 5940 5939 5939 5939 5939 5938 5938 5938 5938 5937 5935 5935 5935 5935 5936 5935 5935 5935 5934 5934 5934
5860 5860 5862 5863 5864 5865 5866 5867 5868 5870 5873 5875 5877 5879 5880 5883 5885 5887 5890 5892 5894 5896 5898 5900 5902 5904 5906 5908 5909 5910 5912 5913 5914 5915 5915 5916 5916 5916 5917 5918 5919 5920 5921 5922 5923 5924 5926 5927 5928 5929 5930 5931 5933 5935 5936 5937 5938 5938 5938 5939 5940 5942 5942 5940 5940 5940 5940 5940 5940 5940 5939 5938 5938 5938 5938 5938 5937 5936 5936 5935 5935 5935 5935 5935 5935 5934 5934 5934
5857 5857 5859 5860 5861 5862 5863 5864 5865 5866 5868 5871 5874 5876 5877 5880 5882 5884 5887 5889 5891 5893 5896 5898 5900 5902 5905 5906 5907 5909 5910 5912 5913 5914 5915 5915 5915 5916 5916 5917 5918 5920 5921 5922 5923 5924 5926 5927 5927 5928 5929 5931 5932 5935 5938 5939 5939 5937 5938 5940 5940 5941 5942 5940 5940 5940 5940 5940 5940 5940 5939 5938 5938 5937 5937 5937 5937 5937 5936 5935 5935 5935 5935 5935 5934 5934 5934 5933
5854 5854 5855 5857 5858 5859 5860 5861 5862 5863 5864 5867 5870 5872 5874 5876 5878 5881 5884 5886 5888 5891 5892 5895 5897 5899 5900 5902 5904 5907 5909 5910 5911 5912 5914 5914 5915 5915 5916 5916 5917 5919 5920 5921 5922 5924 5925 5926 5927 5927 5928 5930 5931 5935 5940 5941 5941 5940 5941 5943 5942 5941 5941 5940 5940 5939 5939 5940 5940 5940 5939 5938 5938 5937 5937 5937 5937 5937 5936 5936 5935 5935 5935 5935 5934 5933 5933 5934
5852 5851 5852 5853 5855 5856 5857 5858 5859 5859 5861 5863 5865 5868 5871 5873 5875 5877 5880 5883 5886 5887 5889 5892 5894 5895 5897 5900 5901 5904 5907 5908 5910 5911 5912 5913 5913 5914 5914 5915 5916 5918 5919 5921 5922 5923 5924 5925 5926 5926 5928 5929 5931 5936 5940 5943 5944 5943 5942 5945 5944 5942 5940 5939 5939 5939 5939 5940 5940 5939 5938 5938 5937 5937 5937 5937 5937 5937 5936 5936 5936 5935 5935 5935 5935 5934 5934 5934
5849 5849 5849 5850 5851 5853 5854 5855 5856 5856 5858 5860 5861 5864 5867 5870 5872 5874 5877 5880 5882 5884 5886 5889 5891 5893 5896 5898 5899 5902 5905 5906 5908 5909 5910 5911 5912 5913 5913 5914 5915 5916 5918 5919 5921 5922 5923 5924 5925 5926 5927 5929 5931 5935 5939 5944 5946 5944 5943 5945 5946 5945 5941 5940 5939 5939 5939 5939 5939 5938 5937 5937 5937 5937 5937 5937 5937 5937 5937 5936 5936 5935 5934 5934 5935 5934 5934 5934
5847 5846 5846 5847 5848 5850 5851 5852 5853 5854 5855 5857 5858 5859 5862 5865 5868 5871 5874 5876 5879 5881 5883 5885 5887 5890 5892 5894 5897 5900 5902 5903 5905 5907 5908 5910 5911 5911 5912 5913 5914 5915 5916 5918 5919 5920 5921 5923 5924 5926 5927 5929 5931 5932 5936 5941 5943 5943 5943 5944 5946 5946 5944 5943 5941 5938 5938 5939 5938 5938 5937 5936 5936 5936 5936 5937 5937 5936 5936 5936 5936 5935 5934 5933 5934 5934 5934 5934
5844 5844 5844 5844 5844 5846 5848 5849 5850 5851 5852 5854 5856 5856 5858 5861 5864 5868 5870 5872 5875 5878 5880 5882 5885 5887 5889 5892 5895 5896 5898 5901 5903 5905 5906 5908 5909 5910 5911 5912 5913 5914 5915 5916 5918 5919 5920 5922 5923 5925 5926 5929 5931 5931 5933 5935 5936 5939 5943 5944 5946 5946 5945 5946 5943 5938 5938 5938 5937 5937 5937 5936 5935 5936 5936 5936 5936 5936 5935 5936 5935 5935 5934 5933 5933 5933 5933 5932
5841 5841 5841 5841 5841 5843 5845 5846 5847 5848 5849 5851 5853 5854 5855 5857 5860 5863 5867 5870 5872 5875 5878 5880 5882 5884 5886 5889 5891 5893 5896 5899 5900 5902 5904 5906 5907 5908 5909 5910 5912 5913 5914 5915 5916 5918 5920 5921 5922 5923 5925 5928 5929 5930 5931 5932 5933 5936 5941 5944 5946 5947 5947 5945 5943 5938 5936 5938 5937 5936 5936 5935 5934 5935 5935 5934 5935 5935 5935 5935 5935 5934 5934 5933 5933 5932 5932 5932
5838 5838 5838 5838 5838 5839 5841 5843 5844 5845 5846 5848 5850 5851 5852 5853 5856 5859 5863 5866 5869 5872 5875 5877 5879 5881 5883 5885 5888 5891 5893 5896 5898 5900 5902 5904 5905 5906 5908 5909 5910 5911 5912 5914 5916 5917 5919 5920 5921 5922 5924 5925 5926 5928 5929 5931 5933 5934 5937 5943 5945 5947 5946 5944 5942 5938 5935 5936 5937 5936 5935 5934 5932 5933 5933 5933 5933 5934 5933 5934 5934 5933 5933 5933 5932 5931 5931 5932
5835 5835 5835 5835 5835 5836 5838 5840 5841 5842 5843 5845 5847 5849 5850 5851 5853 5856 5860 5864 5867 5869 5871 5874 5877 5879 5881 5883 5885 5887 5890 5892 5895 5897 5899 5901 5903 5905 5906 5907 5908 5910 5911 5913 5915 5916 5918 5918 5919 5921 5923 5924 5924 5927 5928 5929 5933 5935 5935 5939 5944 5947 5945 5942 5942 5938 5934 5935 5935 5934 5934 5932 5930 5930 5931 5931 5932 5932 5931 5932 5932 5932 5932 5932 5931 5931 5931 5931
5832 5832 5832 5832 5832 5833 5835 5837 5838 5839 5840 5842 5844 5846 5848 5849 5850 5853 5857 5861 5864 5866 5868 5871 5874 5876 5878 5881 5882 5884 5886 5889 5892 5894 5896 5898 5900 5902 5904 5905 5907 5908 5910 5912 5913 5915 5916 5916 5917 5919 5921 5922 5923 5925 5927 5928 5932 5937 5934 5933 5939 5943 5942 5942 5942 5937 5933 5935 5934 5933 5933 5931 5929 5929 5929 5930 5930 5930 5930 5930 5930 5930 5930 5930 5930 5930 5930 5930
5829 5829 5829 5829 5829 5830 5831 5833 5835 5836 5837 5839 5841 5844 5845 5846 5849 5852 5855 5858 5861 5862 5865 5869 5871 5873 5875 5877 5879 5881 5884 5886 5889 5891 5893 5895 5898 5899 5901 5903 5905 5906 5908 5910 5911 5912 5913 5914 5916 5917 5919 5921 5922 5923 5926 5927 5930 5936 5936 5932 5933 5936 5937 5939 5940 5934 5933 5936 5935 5932 5931 5930 5929 5928 5927 5928 5928 5928 5928 5928 5928 5929 5928 5928 5929 5929 5929 5929
5825 5826 5826 5826 5826 5827 5828 5830 5832 5833 5834 5836 5838 5841 5843 5845 5848 5850 5852 5856 5857 5858 5862 5866 5868 5869 5871 5874 5878 5880 5882 5884 5886 5889 5891 5893 5895 5897 5899 5901 5903 5904 5906 5908 5910 5910 5911 5913 5914 5915 5917 5918 5920 5922 5924 5925 5928 5931 5932 5932 5932 5932 5933 5935 5935 5933 5933 5935 5934 5930 5929 5928 5928 5927 5926 5925 5926 5925 5926 5926 5926 5926 5927 5927 5927 5927 5927 5927
5822 5822 5823 5823 5823 5824 5825 5827 5829 5830 5831 5833 5835 5838 5840 5843 5846 5848 5850 5853 5852 5854 5859 5862 5864 5866 5868 5873 5875 5876 5877 5880 5883 5886 5889 5890 5892 5894 5897 5899 5901 5903 5905 5907 5909 5911 5911 5912 5913 5914 5916 5917 5919 5923 5925 5925 5926 5926 5927 5930 5930 5929 5931 5932 5932 5934 5933 5932 5930 5928 5928 5927 5927 5927 5926 5924 5925 5925 5924 5924 5924 5924 5925 5925 5925 5925 5926 5926
5818 5819 5820 5819 5820 5821 5822 5824 5826 5827 5829 5830 5832 5835 5837 5840 5843 5845 5848 5849 5850 5853 5857 5859 5862 5863 5865 5869 5871 5872 5875 5878 5880 5882 5885 5887 5890 5891 5893 5896 5898 5901 5904 5905 5908 5910 5909 5909 5911 5912 5915 5918 5919 5921 5923 5922 5923 5923 5924 5927 5928 5927 5929 5930 5931 5932 5932 5930 5927 5927 5927 5926 5925 5927 5927 5925 5924 5924 5923 5921 5921 5922 5922 5922 5923 5922 5923 5923
5814 5816 5816 5816 5817 5818 5820 5821 5823 5825 5826 5827 5830 5832 5834 5837 5839 5842 5844 5846 5848 5851 5854 5857 5858 5860 5863 5866 5868 5871 5875 5875 5876 5878 5881 5884 5886 5888 5890 5892 5895 5898 5901 5901 5903 5905 5904 5905 5908 5909 5911 5915 5916 5917 5917 5918 5919 5920 5923 5926 5927 5927 5927 5927 5927 5927 5927 5927 5926 5927 5929 5927 5924 5926 5928 5927 5923 5921 5921 5920 5919 5919 5920 5920 5920 5920 5919 5920
5811 5812 5813 5813 5814 5815 5817 5818 5820 5822 5822 5824 5827 5828 5831 5834 5835 5839 5842 5845 5847 5849 5852 5854 5856 5858 5861 5864 5867 5870 5872 5872 5874 5878 5880 5882 5884 5887 5889 5891 5893 5895 5896 5898 5900 5902 5902 5904 5906 5907 5908 5910 5912 5915 5915 5915 5916 5918 5922 5925 5926 5927 5926 5925 5926 5926 5925 5925 5925 5927 5929 5928 5926 5925 5926 5926 5923 5921 5919 5918 5918 5918 5917 5918 5918 5918 5917 5916
5807 5808 5809 5810 5811 5812 5814 5815 5817 5819 5819 5821 5823 5825 5828 5829 5832 5837 5841 5844 5847 5848 5850 5852 5854 5857 5859 5861 5864 5867 5869 5870 5873 5877 5878 5881 5883 5885 5887 5889 5891 5894 5895 5897 5900 5901 5902 5903 5903 5904 5906 5907 5910 5913 5914 5913 5914 5916 5921 5924 5924 5925 5926 5925 5926 5926 5925 5926 5925 5925 5925 5924 5924 5924 5922 5922 5922 5922 5919 5916 5917 5917 5915 5915 5916 5916 5915 5914
5803 5805 5806 5807 5808 5809 5811 5813 5814 5815 5816 5818 5819 5821 5823 5825 5829 5834 5838 5843 5845 5844 5846 5848 5851 5855 5856 5859 5861 5863 5866 5868 5870 5874 5876 5877 5880 5882 5884 5886 5888 5892 5895 5897 5899 5901 5902 5901 5900 5902 5903 5905 5908 5912 5913 5913 5914 5915 5919 5922 5922 5923 5924 5925 5925 5925 5925 5926 5925 5923 5921 5921 5922 5920 5918 5918 5918 5918 5917 5914 5914 5915 5914 5914 5913 5913 5914 5913
5800 5802 5803 5804 5804 5806 5808 5809 5810 5812 5813 5814 5816 5818 5819 5822 5828 5833 5836 5842 5843 5841 5843 5846 5849 5852 5854 5857 5859 5861 5864 5866 5868 5872 5873 5875 5877 5879 5882 5885 5887 5890 5894 5897 5899 5900 5902 5901 5900 5902 5903 5903 5906 5910 5911 5912 5913 5914 5916 5919 5920 5921 5922 5923 5923 5923 5923 5923 5922 5919 5918 5919 5918 5916 5914 5914 5914 5914 5914 5913 5912 5913 5913 5912 5911 5911 5912 5912
5796 5798 5799 5800 5801 5803 5804 5806 5807 5809 5810 5811 5812 5813 5816 5821 5828 5833 5836 5840 5841 5841 5843 5844 5846 5850 5852 5855 5856 5858 5861 5864 5866 5868 5870 5873 5876 5878 5881 5883 5885 5888 5891 5897 5899 5899 5903 5903 5899 5900 5902 5901 5904 5908 5908 5910 5913 5914 5914 5917 5920 5920 5921 5922 5921 5920 5919 5920 5920 5918 5917 5917 5915 5915 5913 5911 5911 5911 5911 5911 5910 5910 5910 5910 5909 5908 5910 5910
5793 5795 5796 5797 5798 5799 5801 5802 5804 5805 5806 5807 5808 5811 5815 5820 5826 5830 5832 5832 5833 5836 5840 5842 5844 5848 5850 5853 5855 5856 5858 5860 5862 5865 5868 5870 5873 5875 5878 5881 5884 5885 5888 5896 5900 5900 5903 5905 5898 5896 5900 5901 5902 5905 5906 5907 5911 5914 5915 5915 5917 5917 5916 5917 5918 5918 5916 5917 5918 5917 5917 5917 5916 5915 5913 5910 5909 5909 5908 5908 5908 5908 5908 5908 5908 5906 5907 5908
5789 5791 5792 5793 5795 5796 5797 5799 5800 5802 5803 5803 5805 5809 5813 5818 5823 5825 5825 5825 5828 5831 5836 5840 5844 5847 5849 5853 5855 5854 5855 5858 5860 5863 5866 5868 5871 5874 5876 5879 5882 5884 5886 5891 5897 5898 5901 5903 5897 5895 5899 5899 5899 5902 5904 5904 5906 5910 5913 5913 5914 5914 5912 5911 5912 5914 5915 5915 5916 5917 5916 5916 5915 5914 5912 5909 5907 5906 5905 5906 5906 5906 5906 5905 5906 5904 5904 5904
5785 5787 5789 5790 5791 5792 5793 5795 5796 5798 5798 5800 5803 5807 5811 5815 5819 5820 5820 5822 5825 5827 5831 5837 5843 5846 5847 5851 5854 5852 5853 5857 5858 5861 5865 5867 5870 5872 5874 5878 5880 5883 5885 5887 5892 5896 5898 5899 5896 5895 5897 5896 5897 5898 5900 5901 5901 5903 5907 5908 5910 5911 5911 5911 5909 5910 5913 5914 5915 5916 5915 5915 5913 5912 5910 5907 5904 5903 5903 5903 5903 5904 5904 5903 5903 5903 5902 5902
5782 5783 5785 5786 5787 5788 5790 5791 5792 5793 5795 5798 5802 5806 5809 5812 5814 5816 5817 5820 5822 5825 5830 5835 5840 5845 5846 5848 5852 5852 5851 5855 5858 5860 5863 5866 5869 5871 5873 5877 5879 5880 5882 5883 5887 5892 5895 5895 5894 5895 5894 5892 5892 5893 5896 5900 5899 5898 5901 5904 5906 5908 5909 5910 5907 5907 5911 5912 5913 5913 5914 5914 5910 5908 5908 5904 5901 5901 5902 5901 5900 5900 5901 5900 5901 5901 5900 5900
5778 5779 5781 5783 5783 5784 5786 5787 5789 5791 5793 5797 5800 5802 5805 5807 5809 5811 5814 5816 5820 5823 5826 5828 5832 5839 5842 5844 5850 5852 5850 5853 5856 5858 5862 5865 5867 5867 5869 5873 5875 5876 5879 5880 5882 5886 5890 5892 5892 5893 5892 5890 5890 5891 5893 5898 5899 5899 5899 5901 5904 5906 5906 5907 5906 5907 5908 5909 5910 5910 5912 5912 5905 5903 5905 5902 5899 5900 5899 5898 5898 5897 5897 5898 5898 5898 5898 5898
5774 5774 5777 5779 5779 5781 5782 5784 5786 5788 5790 5793 5796 5799 5800 5801 5803 5807 5810 5813 5818 5821 5823 5825 5827 5830 5835 5840 5846 5850 5851 5851 5853 5856 5859 5862 5863 5864 5866 5868 5870 5873 5876 5877 5879 5881 5885 5889 5890 5890 5890 5889 5890 5890 5891 5895 5899 5900 5899 5899 5902 5904 5904 5904 5905 5906 5906 5906 5907 5907 5909 5908 5901 5899 5901 5899 5898 5898 5896 5896 5896 5894 5895 5895 5895 5895 5895 5895
5770 5770 5774 5776 5776 5777 5779 5780 5783 5785 5787 5790 5793 5795 5796 5797 5800 5803 5805 5810 5814 5817 5820 5824 5826 5826 5830 5836 5841 5847 5850 5850 5851 5853 5857 5861 5863 5864 5864 5863 5866 5869 5871 5874 5877 5879 5880 5883 5887 5888 5888 5889 5889 5891 5892 5892 5894 5897 5899 5899 5900 5901 5902 5902 5902 5904 5903 5902 5903 5903 5905 5904 5898 5897 5898 5896 5896 5895 5894 5894 5894 5893 5893 5893 5893 5893 5892 5892
5766 5767 5770 5772 5772 5774 5775 5778 5780 5782 5784 5787 5789 5790 5792 5794 5797 5799 5802 5807 5810 5813 5816 5820 5822 5824 5827 5830 5834 5840 5845 5847 5849 5851 5856 5860 5861 5860 5859 5858 5861 5866 5868 5870 5874 5876 5877 5878 5881 5884 5886 5887 5886 5888 5890 5888 5887 5891 5894 5896 5898 5900 5901 5900 5900 5900 5898 5897 5898 5899 5901 5900 5895 5894 5894 5893 5893 5893 5892 5891 5891 5891 5892 5891 5890 5891 5890 5889
5762 5764 5766 5767 5769 5771 5772 5775 5776 5778 5780 5783 5785 5786 5789 5791 5794 5796 5799 5802 5804 5808 5811 5814 5817 5820 5822 5824 5828 5833 5837 5842 5846 5848 5853 5857 5855 5854 5854 5854 5859 5864 5864 5866 5871 5874 5875 5875 5876 5878 5881 5884 5884 5885 5885 5885 5884 5885 5888 5892 5895 5896 5898 5899 5899 5897 5894 5894 5895 5896 5898 5895 5891 5890 5891 5890 5890 5890 5890 5889 5888 5888 5889 5888 5887 5888 5887 5887
5758 5759 5761 5763 5765 5767 5769 5771 5772 5774 5777 5779 5780 5782 5786 5788 5791 5793 5795 5798 5800 5804 5807 5810 5813 5816 5819 5821 5825 5829 5831 5836 5842 5845 5849 5853 5850 5849 5850 5851 5856 5860 5859 5861 5867 5869 5869 5870 5871 5871 5875 5880 5884 5884 5883 5883 5883 5883 5884 5887 5891 5893 5894 5895 5895 5895 5893 5892 5891 5891 5891 5890 5888 5888 5888 5887 5886 5886 5887 5887 5886 5885 5885 5885 5884 5884 5884 5884
5753 5754 5756 5759 5761 5764 5766 5768 5769 5771 5773 5774 5776 5779 5782 5784 5786 5789 5792 5795 5798 5801 5805 5808 5811 5813 5816 5818 5821 5826 5829 5833 5837 5839 5842 5848 5847 5844 5846 5850 5853 5854 5856 5859 5862 5862 5863 5867 5869 5869 5871 5875 5878 5880 5881 5881 5882 5883 5882 5883 5886 5888 5890 5891 5890 5891 5891 5890 5889 5887 5885 5886 5887 5886 5885 5884 5883 5881 5882 5884 5884 5882 5882 5881 5881 5880 5879 5879
5747 5750 5752 5755 5757 5759 5761 5763 5765 5767 5768 5770 5772 5775 5778 5781 5783 5785 5788 5791 5794 5799 5802 5804 5808 5811 5813 5815 5817 5821 5825 5829 5833 5834 5836 5843 5844 5840 5842 5847 5848 5850 5854 5857 5858 5858 5860 5863 5866 5866 5867 5869 5872 5876 5880 5881 5881 5882 5881 5882 5883 5885 5886 5886 5886 5887 5887 5886 5885 5883 5881 5882 5884 5883 5882 5881 5879 5879 5880 5881 5881 5880 5879 5878 5877 5876 5875 5874
5743 5746 5748 5750 5752 5755 5757 5758 5761 5764 5765 5766 5769 5771 5774 5778 5780 5781 5783 5786 5791 5795 5797 5800 5805 5807 5808 5811 5814 5817 5819 5821 5826 5829 5831 5836 5839 5837 5838 5842 5843 5846 5850 5852 5854 5856 5857 5858 5861 5863 5865 5867 5868 5871 5875 5877 5878 5878 5879 5880 5882 5882 5883 5882 5883 5884 5884 5883 5881 5879 5879 5880 5879 5879 5880 5877 5875 5877 5879 5878 5878 5878 5877 5875 5874 5873 5871 5869
5738 5740 5743 5746 5748 5751 5753 5756 5759 5761 5761 5763 5765 5767 5771 5774 5776 5777 5778 5782 5786 5789 5792 5796 5799 5800 5803 5808 5811 5811 5812 5815 5818 5821 5824 5829 5831 5832 5835 5837 5840 5843 5845 5848 5850 5851 5852 5855 5858 5861 5863 5863 5866 5870 5871 5871 5872 5873 5875 5878 5879 5880 5880 5881 5880 5880 5880 5880 5878 5874 5875 5876 5875 5875 5876 5872 5871 5874 5875 5874 5875 5874 5874 5872 5871 5870 5868 5866
5732 5735 5738 5741 5743 5746 5750 5752 5754 5756 5757 5759 5761 5763 5766 5769 5770 5771 5775 5779 5782 5783 5787 5791 5792 5796 5802 5804 5804 5805 5809 5814 5816 5817 5820 5824 5826 5828 5830 5832 5836 5838 5840 5843 5845 5845 5848 5852 5853 5855 5856 5857 5862 5865 5864 5865 5866 5867 5870 5872 5874 5875 5877 5878 5877 5876 5876 5876 5873 5870 5871 5873 5871 5870 5870 5869 5869 5871 5871 5870 5871 5871 5870 5869 5867 5866 5865 5864
5726 5729 5733 5736 5738 5742 5746 5747 5750 5752 5753 5754 5756 5758 5761 5764 5765 5769 5773 5776 5778 5780 5785 5788 5791 5796 5798 5796 5798 5804 5808 5812 5814 5816 5819 5822 5823 5825 5828 5830 5832 5834 5836 5840 5841 5842 5845 5847 5848 5849 5849 5852 5857 5857 5857 5860 5860 5860 5862 5866 5870 5871 5872 5873 5873 5872 5870 5868 5867 5866 5867 5868 5867 5865 5865 5866 5866 5867 5868 5868 5868 5867 5866 5865 5864 5862 5861 5861